Muncie, IN

7:12 PM EST on December 14, 2017 (GMT -0500)
Delaware County-Johnson

Weather History for KMIE - September, 2013

Change the Weather History Date:

Monday, September 16, 2013

  Actual Average Record
Temperature  
Mean Temperature 56 °F 66 °F  
Max Temperature 63 °F 77 °F 92 °F (1991)
Min Temperature 48 °F 54 °F 37 °F (1984)
Degree Days  
Heating Degree Days 9 3  
Month to date heating degree days 35 24  
Since 1 July heating degree days 61 34  
Cooling Degree Days 0 3  
Month to date cooling degree days 101 75  
Year to date cooling degree days 916 909  
Growing Degree Days 6 (Base 50)    
Moisture  
Dew Point 53 °F    
Average Humidity 79    
Maximum Humidity 93    
Minimum Humidity 65    
Precipitation  
Precipitation T in 0.09 in 0.41 in (1981)
Month to date precipitation 1.18 1.67  
Year to date precipitation 26.06 29.58  
Sea Level Pressure  
Sea Level Pressure 30.22 in    
Wind  
Wind Speed 6 mph (NE)    
Max Wind Speed 15 mph    
Max Gust Speed 28 mph    
Visibility 8 miles    
Events Rain    
T = Trace of Precipitation, MM = Missing Value Source: NWS Daily Summary

Daily Weather History Graph

Daily Weather History Graph

Search for Another Location

Airport or City:

Trip Planner

Search our weather history database for the weather conditions in past years. The results will help you decide how hot, cold, wet, or windy it might be!

Date:

Astronomy

Sep. 16, 2013 Rise Set
Actual Time 7:23 AM EDT 7:48 PM EDT
Civil Twilight 6:56 AM EDT 8:15 PM EDT
Nautical Twilight 6:24 AM EDT 8:47 PM EDT
Astronomical Twilight 5:51 AM EDT 9:20 PM EDT
Moon 5:57 PM EDT (9/16) 4:08 AM EDT (9/16)
Length of Visible Light 13h 19m
Length of Day
12h 24m
Waxing Gibbous, 90% of the Moon is Illuminated
Sep 16
Waxing Gibbous
Sep 19
Full
Sep 26
Last Quarter
Oct 4
New
Oct 11
First Quarter

Hourly Weather History & Observations

Time (EDT) Temp. Dew Point Humidity Pressure Visibility Wind Dir Wind Speed Gust Speed Precip Events Conditions
12:40 AM 57.2 °F 55.4 °F 94% 30.13 in 7.0 mi East 5.8 mph - 0.01 in Rain Light Rain
12:53 AM 57.0 °F 55.0 °F 93% 30.11 in 2.5 mi ESE 8.1 mph - 0.06 in Rain Light Rain
1:00 AM 57.2 °F 55.4 °F 94% 30.13 in 4.0 mi ESE 6.9 mph - 0.01 in Rain Light Rain
1:53 AM 57.0 °F 55.0 °F 93% 30.10 in 6.0 mi ESE 6.9 mph - 0.01 in   Overcast
2:08 AM 57.2 °F 55.4 °F 94% 30.13 in 6.0 mi ESE 5.8 mph - N/A   Overcast
2:26 AM 57.2 °F 55.4 °F 94% 30.13 in 6.0 mi East 3.5 mph - N/A   Overcast
2:53 AM 57.0 °F 55.0 °F 93% 30.12 in 6.0 mi East 3.5 mph - N/A   Overcast
3:02 AM 57.2 °F 55.4 °F 94% 30.13 in 6.0 mi Calm Calm - N/A   Overcast
3:53 AM 57.0 °F 55.0 °F 93% 30.12 in 7.0 mi Calm Calm - N/A   Overcast
4:40 AM 57.2 °F 55.4 °F 94% 30.15 in 6.0 mi Calm Calm - N/A   Overcast
4:50 AM 57.2 °F 55.4 °F 94% 30.16 in 6.0 mi North 4.6 mph - N/A   Overcast
4:53 AM 57.0 °F 55.0 °F 93% 30.14 in 6.0 mi North 6.9 mph - N/A   Overcast
5:53 AM 57.0 °F 55.0 °F 93% 30.15 in 5.0 mi NNE 6.9 mph - N/A   Overcast
6:53 AM 57.0 °F 54.0 °F 89% 30.17 in 7.0 mi NNE 6.9 mph - N/A   Overcast
7:47 AM 57.2 °F 53.6 °F 88% 30.22 in 6.0 mi NE 6.9 mph - N/A   Overcast
7:53 AM 57.0 °F 54.0 °F 89% 30.21 in 6.0 mi NNE 8.1 mph - N/A   Overcast
8:19 AM 57.2 °F 55.4 °F 94% 30.23 in 7.0 mi NNE 6.9 mph - N/A   Overcast
8:30 AM 57.2 °F 53.6 °F 88% 30.23 in 7.0 mi NNE 8.1 mph - N/A   Overcast
8:53 AM 57.0 °F 55.0 °F 93% 30.23 in 7.0 mi NNE 9.2 mph - N/A   Overcast
9:12 AM 57.2 °F 53.6 °F 88% 30.24 in 8.0 mi NNE 9.2 mph - N/A   Overcast
9:35 AM 59.0 °F 53.6 °F 82% 30.25 in 10.0 mi NE 8.1 mph - N/A   Overcast
9:53 AM 59.0 °F 54.0 °F 83% 30.25 in 10.0 mi ENE 9.2 mph - N/A   Overcast
10:05 AM 59.0 °F 53.6 °F 82% 30.27 in 10.0 mi NE 6.9 mph - N/A   Overcast
10:51 AM 60.8 °F 53.6 °F 77% 30.29 in 10.0 mi NE 11.5 mph - N/A   Overcast
10:53 AM 60.1 °F 53.1 °F 78% 30.28 in 10.0 mi NE 10.4 mph - N/A   Overcast
11:53 AM 60.1 °F 52.0 °F 75% 30.29 in 10.0 mi NE 11.5 mph - N/A   Overcast
12:53 PM 61.0 °F 52.0 °F 72% 30.29 in 10.0 mi NE 10.4 mph - N/A   Overcast
1:53 PM 61.0 °F 51.1 °F 70% 30.30 in 10.0 mi NE 12.7 mph - N/A   Overcast
2:53 PM 62.1 °F 51.1 °F 67% 30.29 in 10.0 mi East 8.1 mph - N/A   Overcast
3:53 PM 62.1 °F 51.1 °F 67% 30.29 in 10.0 mi East 5.8 mph - N/A   Overcast
4:49 PM 62.6 °F 51.8 °F 68% 30.29 in 10.0 mi NE 10.4 mph - N/A   Overcast
4:53 PM 63.0 °F 51.1 °F 65% 30.27 in 10.0 mi NNE 8.1 mph - N/A   Overcast
5:07 PM 62.6 °F 50.0 °F 63% 30.29 in 10.0 mi ENE 9.2 mph - N/A   Overcast
5:40 PM 62.6 °F 50.0 °F 63% 30.28 in 10.0 mi East 6.9 mph - N/A   Overcast
5:53 PM 63.0 °F 50.0 °F 63% 30.27 in 10.0 mi NE 6.9 mph - N/A   Overcast
6:53 PM 62.1 °F 50.0 °F 65% 30.28 in 10.0 mi ENE 5.8 mph - N/A   Overcast
7:53 PM 55.9 °F 50.0 °F 80% 30.27 in 10.0 mi Calm Calm - N/A   Clear
8:53 PM 52.0 °F 48.9 °F 89% 30.29 in 10.0 mi Calm Calm - N/A   Clear
9:53 PM 50.0 °F 48.0 °F 93% 30.30 in 10.0 mi Calm Calm - N/A   Clear
10:53 PM 50.0 °F 46.9 °F 89% 30.30 in 10.0 mi Calm Calm - N/A   Clear
11:53 PM 51.1 °F 46.9 °F 86% 30.31 in 10.0 mi East 5.8 mph - N/A   Clear